STARLINK-31824, 59804

Orbit data source: Space-Track

STARLINK-31824, 59804 is a payload satellite owned by SpaceX/Seattle (US) in LEO that was launched on Sat, 18 May 2024 UTC via an FALCON 9 launch vehicle from the Air Force Eastern Test Range (AFETR). Payload-class satellites include a variety of spacecraft equipped with specific instruments for various scientific and technological missions. These include communications satellites like Starlink; space stations such as the ISS; scientific satellites like the Hubble; Earth observation satellites from companies like Planet Labs, Umbra, and HawkEye 360; GPS; miniature CubeSats for education and research; and military/defense satellites.

Loading next visibility...
Identifier
59804, 2024-093Y
Orbit
LEO
Country
Flag of USUS
Related business
Manufacturer
SpaceX/Seattle
Mission
Operational Commercial Communications
Bus & Motor
STARLINK V2M, Unknown motor
Mass
730 kg wet, ~700 kg dry
Launch date (UTC)
2024-05-18 (2 years ago)
Launch vehicle
FALCON 9
Launch site
Air Force Eastern Test Range (AFETR)
Object type
Payload
Rocket body
Debris
Shape & HBR
Box + 2 Pan, 17.7 m
Radar Cross Section
33.884 m², Large (>1 m²)

Expand to show TLE details & history
Last TLE update: 1 day ago

TLE from 1 day ago
0 STARLINK-31824
1 59804U 24093Y   26073.01191681  .00001888  00000-0  78125-4 0  9991
2 59804  42.9989 184.7220 0001144 299.0804  60.9933 15.27580426103357
Epoch: 2026-03-14T00:17Z
TLE epoch observation values (Epoch: 2026-03-14T00:17:09.612Z)
Latitude
-0.00001°
Longitude
8.79272°
Altitude
482.443 km
Speed
7.626 km/s
True Right ascension
12h 18m 53s
True Declination
0° 00' 00"
Sunlit
Object was in full shadow at epoch
Visualization orbit readout
Latitude
Unknown
Longitude
Unknown
Altitude
Unknown
Speed
Unknown
Apparent Right ascension
Unknown
Apparent Declination
Unknown
Sunlit
N/A
Visualization observer readout
Local Sidereal Time
05:27:34
Azimuth
Unknown
Elevation
Unknown
Doppler factor
Unknown
Orbital elements
Apogee altitude
485.778 km
Perigee altitude
484.208 km
Semi-major axis
6,863.13 km
Eccentricity
0.00011
Inclination
42.9989°
RAAN
184.722°
Arg. of periapsis
299.0804°
True anomaly
61.00477°
Mean anomaly
60.9933°
Eccentric anomaly
60.99903°
Mean motion
3.81733 °/min
Orbital period
94.31 mins
BSTAR
0.000078125
Loading maneuver chart data...
Computing Atmospheric mass density...
Loading historical data...
Loading historical data...
Loading historical data...
Loading historical data...
Loading historical data...
Loading historical data...
Loading historical data...

Documentation

Showing up to 5 results
|